Wind_Speed
10 8 8 11 13 11 4 6 9 11 11 6 6 9 11 14 12 7 12 15 19 21 19 16 14 12 12 13 13 12 10 9 9 8 9 10 12 13 12 12 13 13 14 14 12 11 10 8 8 10 11 12 14 15 16 16 16 17 17 16 15 15 14 11 9 8 7 6 6 5 5 5 5 5 6 6 7 8 9 8 7 7 9 10 11 12 14
12 11 9 10 13 17 18 10 1 7 10 8 5 6 2 7 9 11 18 20 21 22 21 19 16 13 13 15 14 13 10 9 10 9 8 10 10 11 12 13 13 13 14 16 16 15 14 12 11 12 12 12 12 13 14 15 15 16 16 14 12 12 12 10 9 8 7 6 6 6 6 6 6 6 7 6 7 8 10 10 9 8 9 11 12 13 15
9 9 8 8 8 12 20 21 13 6 4 6 7 5 3 8 12 19 25 24 22 21 20 20 17 13 13 14 14 14 12 11 12 11 9 10 9 9 10 12 15 16 16 17 19 19 19 17 16 16 16 15 14 13 13 13 14 12 11 12 11 10 10 10 9 9 8 8 8 7 7 7 8 8 9 8 8 10 11 11 11 11 12 13 14 15 16
8 8 7 7 6 7 13 17 17 16 15 8 3 6 4 7 15 22 25 21 18 19 21 19 16 14 13 13 14 16 15 15 15 13 12 12 11 13 15 17 21 22 22 22 22 23 23 21 21 22 21 20 19 17 14 12 12 11 10 10 10 9 10 10 9 9 9 9 9 10 10 10 10 10 10 10 10 11 13 12 12 14 15 16 16 17 19
8 8 8 8 6 5 7 11 13 14 16 16 9 2 1 5 9 14 18 16 13 15 16 14 11 10 10 11 13 17 20 21 19 17 19 21 21 22 24 26 26 25 25 25 26 26 26 25 25 25 26 25 23 19 15 11 9 9 9 10 11 12 13 12 10 10 11 11 12 12 12 12 12 11 12 12 12 13 14 14 15 16 17 17 17 18 19
6 6 6 8 8 6 4 6 9 10 10 13 13 9 7 5 6 10 13 12 10 11 12 12 12 11 14 17 20 22 24 26 28 28 28 29 29 29 28 28 27 26 26 25 25 25 24 23 23 22 23 24 23 21 19 17 15 11 7 9 13 14 13 13 12 12 13 13 14 14 15 15 14 13 13 14 14 15 15 15 16 17 17 18 19 19 19
4 4 3 4 5 4 3 4 6 9 9 9 9 11 12 10 7 6 5 8 12 15 16 17 16 13 13 15 18 20 22 25 28 29 29 28 28 27 25 21 18 17 17 18 18 18 18 18 18 18 18 18 18 19 20 21 22 19 14 14 17 16 15 14 13 13 14 14 14 15 16 16 15 14 14 15 15 17 17 18 18 19 20 20 21 21 21
3 2 2 2 0 1 2 5 7 8 8 8 9 8 8 11 12 10 4 10 17 19 20 18 12 6 3 4 7 11 13 16 19 21 22 22 22 21 19 16 13 10 10 13 14 15 15 14 14 15 15 14 14 16 18 19 21 22 21 20 19 18 17 15 14 15 15 15 15 16 17 16 16 16 17 16 17 18 19 21 22 22 23 23 23 24 24
5 3 4 4 2 1 2 4 6 9 8 8 8 6 5 7 8 10 14 18 20 21 19 14 9 6 5 5 5 7 8 11 13 16 16 15 14 14 14 13 12 11 10 10 9 9 9 10 10 11 11 13 12 12 14 14 14 15 16 14 11 12 13 13 14 16 16 16 16 16 17 17 18 19 19 19 19 20 22 23 24 26 27 26 26 26 26
7 5 4 3 3 2 3 3 8 13 13 11 10 8 8 9 10 14 18 18 20 23 21 17 15 14 14 13 11 9 9 11 12 14 14 11 10 11 11 10 11 11 11 11 10 11 11 12 12 11 11 12 11 10 11 12 12 13 14 14 13 14 15 15 16 17 17 16 17 17 19 20 21 22 22 22 23 25 26 27 28 29 30 31 31 30 30
6 5 3 1 1 2 2 4 8 12 14 14 11 7 7 9 11 13 11 11 15 20 20 16 11 12 14 13 12 11 12 14 15 15 14 12 11 12 11 11 11 12 13 14 14 15 16 18 19 18 17 17 17 16 16 17 18 19 19 19 20 20 20 19 19 18 18 19 20 22 23 24 25 26 27 27 28 29 31 32 32 33 33 33 33 34 34
7 6 4 1 2 4 5 5 4 4 8 12 9 4 6 11 10 9 7 4 5 8 10 10 7 7 9 9 11 12 13 15 16 14 13 12 11 12 12 11 12 12 14 14 14 15 17 18 19 21 21 20 20 19 19 20 21 21 21 20 20 21 22 22 21 21 22 24 25 27 28 29 30 31 31 32 32 33 33 34 34 35 35 35 35 34 35
7 7 4 4 4 6 6 3 2 2 6 8 5 5 10 12 9 8 10 9 8 10 12 14 12 10 10 10 12 12 11 11 12 11 11 11 11 12 12 12 12 13 13 13 13 14 15 16 16 17 18 18 18 18 18 19 20 20 20 20 21 22 23 24 24 25 25 27 28 30 31 32 33 34 34 35 34 34 34 33 34 34 33 33 33 33 34
5 5 3 6 6 3 3 2 4 7 9 8 9 11 13 13 11 11 11 12 14 14 15 16 14 14 14 12 13 12 9 9 10 10 10 11 11 12 13 13 13 14 14 14 14 15 15 15 16 17 17 18 18 19 20 21 21 21 22 23 24 25 26 28 29 30 30 30 32 34 35 35 36 36 36 36 35 34 34 33 33 33 33 32 32 33 35
4 4 2 4 4 1 3 5 8 10 11 11 12 15 17 17 17 15 12 13 13 13 16 17 15 15 16 14 14 14 11 10 10 10 10 11 11 12 13 13 14 15 15 16 16 17 17 18 19 19 20 21 22 23 24 24 25 26 27 28 29 30 31 32 34 34 35 35 37 38 39 39 39 39 39 38 37 37 36 36 36 35 36 36 36 37 38
3 4 4 5 4 2 3 5 8 12 14 12 12 16 19 20 20 20 17 15 12 9 11 14 15 16 16 16 15 13 12 12 12 13 12 12 13 14 15 15 16 17 18 18 19 19 20 20 21 22 23 24 25 26 27 28 29 30 31 32 33 34 35 35 36 37 38 38 39 40 40 41 41 41 41 41 41 41 41 41 41 41 41 42 42 43 43
5 5 6 6 4 2 1 3 8 12 13 11 13 17 20 20 21 21 20 18 15 12 10 12 15 16 15 15 13 11 11 13 14 16 16 16 17 18 19 19 19 20 21 22 22 22 23 23 24 25 26 27 27 29 29 30 31 32 33 34 35 36 37 37 38 39 39 40 41 41 42 42 43 43 43 43 44 44 45 45 45 44 45 45 46 47 46
5 6 5 6 4 3 3 3 7 11 11 11 13 15 16 17 19 19 18 17 17 16 15 15 15 14 12 12 10 10 12 14 16 18 19 19 20 21 22 22 21 22 23 24 25 25 25 26 27 28 29 29 29 30 30 30 31 32 33 34 34 35 36 37 38 39 40 41 41 42 42 43 43 44 45 45 45 46 46 46 45 45 46 46 47 47 45
3 3 4 4 2 2 3 3 4 8 11 11 10 10 12 13 14 13 11 10 10 12 14 15 13 11 9 8 9 12 14 15 17 20 21 20 20 22 23 23 23 23 24 24 25 26 25 26 27 28 28 28 27 28 29 29 30 31 31 32 32 33 34 34 35 36 37 38 39 40 40 41 42 42 43 43 44 44 44 44 44 43 43 44 44 44 43
3 4 4 4 3 4 4 2 2 3 7 9 7 8 8 10 10 11 11 10 9 9 10 12 12 11 11 10 11 14 17 18 21 23 22 21 22 23 24 24 24 24 24 24 25 25 25 25 26 26 26 25 25 25 26 27 28 29 30 31 32 32 33 33 34 34 35 35 36 36 37 37 38 39 39 39 40 41 41 42 42 41 40 39 39 41 42
3 5 6 6 6 5 5 3 1 2 3 6 6 7 7 8 9 10 10 10 9 8 7 8 10 13 14 14 14 15 18 21 23 24 23 22 22 22 24 24 23 24 25 25 25 24 23 23 24 23 23 22 22 23 24 25 26 27 29 30 31 31 32 32 33 33 33 32 33 33 33 33 33 34 35 35 35 34 35 38 41 42 41 39 36 36 38
2 4 6 6 4 4 6 5 2 1 3 4 4 4 4 6 7 7 6 6 6 7 8 8 11 14 16 15 15 15 18 21 23 23 23 22 20 21 22 22 22 23 23 22 21 20 19 20 20 20 20 20 20 21 22 23 25 27 28 29 29 30 30 31 31 31 32 32 31 32 32 32 31 32 32 33 34 32 31 32 35 40 42 40 38 37 38
3 5 6 4 2 4 6 6 5 5 5 4 3 4 2 4 5 5 3 3 4 7 9 10 12 14 16 16 16 16 18 20 22 23 22 20 18 19 19 19 20 20 19 18 17 17 17 17 17 17 18 18 19 21 22 24 25 26 27 28 28 29 29 30 30 31 31 31 31 30 31 31 30 30 31 32 34 34 32 30 31 34 38 41 40 39 41
3 4 4 4 4 6 7 7 6 5 4 4 5 4 2 2 3 6 7 6 6 9 11 12 14 14 14 15 15 16 17 19 21 21 19 17 17 17 16 17 18 17 16 16 16 16 15 15 15 16 17 19 20 22 23 24 25 26 26 27 28 28 29 29 29 29 29 28 28 27 27 28 28 28 29 30 31 32 33 33 32 32 35 39 41 40 41
4 5 4 5 5 6 5 4 4 4 3 4 5 5 6 7 8 10 10 8 7 8 10 12 15 15 14 14 15 16 16 16 17 17 16 16 17 16 15 16 16 15 15 15 14 14 13 14 15 16 18 20 22 22 23 23 23 24 25 25 26 26 26 26 26 25 25 26 26 26 26 26 27 27 28 28 29 30 30 32 34 34 35 38 41 43 43
3 5 5 4 5 4 3 3 4 2 2 3 4 6 10 12 10 10 10 9 8 9 11 14 16 16 15 15 15 14 14 14 15 15 15 16 16 15 14 15 15 14 14 12 11 11 12 13 15 17 19 21 21 21 21 22 22 23 23 23 22 22 21 22 23 23 23 24 25 25 26 26 27 28 28 29 29 30 29 30 31 33 34 36 39 43 44
2 3 4 4 3 2 5 8 9 6 4 4 3 4 7 9 8 7 8 8 8 10 11 14 16 16 15 15 14 13 13 13 14 14 15 15 15 14 14 13 13 12 11 10 10 10 12 13 16 17 19 20 21 21 22 22 22 22 21 19 18 18 18 20 21 21 21 22 23 24 26 26 27 28 29 29 29 30 30 29 27 29 32 34 35 38 40
4 3 3 4 4 4 5 7 8 6 4 4 4 3 4 8 10 8 7 9 10 12 12 13 15 15 14 14 14 13 12 13 13 14 15 14 14 13 12 11 10 9 8 8 9 10 12 14 15 17 18 19 21 22 22 21 20 18 17 16 16 17 18 19 20 21 21 22 23 24 25 26 27 27 28 28 28 28 28 26 24 25 28 30 30 29 30
4 4 3 3 3 3 3 2 3 3 2 3 5 3 3 8 10 9 8 10 11 12 10 10 13 15 13 12 13 12 12 13 14 14 14 13 12 11 9 8 8 7 7 8 8 9 11 13 15 16 18 20 21 20 19 18 16 15 15 15 16 17 18 18 19 21 22 23 24 25 25 26 26 27 27 26 26 25 24 22 20 21 23 26 26 24 22
4 3 3 2 2 2 2 2 3 3 3 4 4 3 4 8 11 8 5 6 8 9 8 9 13 14 12 11 12 13 13 14 14 13 13 12 10 9 8 7 6 6 7 7 7 9 11 13 15 16 17 18 19 18 17 17 16 14 14 15 15 16 17 18 19 21 22 23 23 24 25 25 25 24 23 22 22 22 22 20 18 18 20 23 25 22 19
5 4 4 3 2 2 2 2 3 4 3 4 5 5 5 8 10 7 6 9 12 12 11 11 11 12 12 11 12 13 13 13 13 12 12 11 10 8 7 6 6 6 6 6 7 9 11 12 14 15 15 16 17 17 18 19 17 14 13 14 14 14 16 17 19 20 21 22 21 21 21 20 19 19 19 18 18 18 18 18 18 18 18 20 22 21 18
6 5 5 3 3 2 3 3 4 4 4 5 6 6 6 7 8 6 6 10 11 10 10 10 10 10 11 12 12 12 12 12 12 12 11 10 8 7 7 7 6 6 5 5 7 9 10 11 13 13 14 16 16 17 18 18 16 13 12 12 12 13 15 16 18 19 19 19 18 17 16 15 15 16 17 15 14 13 12 14 15 15 15 16 17 17 17
7 6 6 5 3 2 4 4 5 5 6 6 7 8 7 6 6 7 8 9 8 6 7 8 8 8 9 10 10 10 10 10 10 10 9 8 7 7 7 7 6 5 3 4 7 9 10 10 11 12 14 16 16 16 17 16 14 14 13 12 11 12 14 16 17 18 17 15 15 14 13 14 16 18 18 15 13 9 5 7 11 13 14 13 12 12 14
7 6 6 5 3 2 4 6 6 6 6 5 6 7 5 4 5 6 7 7 6 5 6 7 6 7 8 7 7 7 7 7 6 5 5 6 7 7 7 7 6 3 2 4 6 8 9 9 10 12 15 16 15 15 16 16 16 16 14 12 11 12 14 15 16 15 13 13 13 13 12 13 16 18 17 14 11 6 2 2 7 10 10 11 9 7 7
8 6 5 5 4 4 5 6 6 7 7 7 8 8 5 4 6 7 7 7 6 6 6 6 6 6 6 6 4 4 3 2 2 3 4 6 7 7 8 7 5 3 3 4 6 7 8 9 9 11 14 15 14 14 15 16 17 17 15 12 10 12 13 14 14 13 11 11 13 13 12 12 13 12 12 12 11 8 5 2 4 5 4 5 8 8 7
9 6 5 5 5 5 5 6 8 10 11 10 11 10 6 4 5 6 6 5 5 5 5 5 5 6 6 5 4 3 2 2 2 3 4 5 6 7 7 6 4 4 5 5 6 6 7 9 9 10 12 13 13 13 14 15 16 17 14 11 11 12 12 12 12 11 10 9 10 11 11 12 12 10 9 11 11 9 7 6 5 5 6 8 8 6 4
8 6 5 5 5 5 6 8 10 12 11 9 9 8 6 6 7 7 5 3 4 5 5 6 6 6 6 5 4 4 4 5 5 4 4 5 5 7 7 6 6 7 7 6 6 7 7 9 9 9 10 11 12 12 13 13 14 16 14 13 12 12 11 11 11 10 8 7 7 8 9 10 10 10 9 10 10 8 6 7 7 6 4 3 2 1 1
7 6 5 5 5 6 7 8 10 9 7 5 5 6 6 7 8 7 5 4 6 7 6 6 6 6 6 6 7 7 7 8 8 8 8 7 6 8 8 8 8 8 7 7 7 7 7 8 8 7 8 9 10 11 11 12 13 15 14 14 13 12 11 11 10 9 8 7 6 6 6 7 9 10 10 11 12 11 9 7 6 6 3 1 2 4 4
6 6 5 5 5 6 7 8 8 6 5 4 5 6 7 7 8 8 7 6 7 8 7 7 7 6 6 6 8 8 8 9 9 9 9 8 7 7 8 8 7 7 7 7 7 6 7 8 7 6 6 7 7 9 10 11 12 13 13 14 14 13 11 11 10 9 9 8 7 7 8 9 9 8 7 7 9 10 8 5 4 5 4 2 3 5 5
7 6 6 6 5 5 5 6 5 4 5 6 6 7 7 7 8 10 8 6 5 7 7 8 9 9 7 7 7 7 7 8 7 7 7 7 6 7 8 7 6 6 7 7 7 6 6 7 6 4 5 5 6 7 8 9 10 12 12 13 13 12 12 11 10 9 9 8 7 7 8 8 8 8 6 5 5 5 5 4 4 4 3 3 4 5 4
10 10 10 9 8 6 6 5 5 4 5 6 7 7 7 7 8 10 10 8 8 9 8 9 10 10 9 8 8 7 7 7 6 6 6 6 6 7 7 6 6 7 7 6 6 6 5 4 4 3 4 4 4 5 7 7 8 9 10 12 12 12 12 11 11 10 10 9 8 8 8 7 7 8 8 6 5 4 4 5 5 4 3 3 4 5 5
13 12 11 11 10 9 7 6 6 6 6 7 6 7 8 8 8 9 10 10 10 10 10 9 9 10 9 8 7 7 7 6 6 6 6 5 5 6 6 5 4 5 4 4 3 3 2 1 1 2 2 2 3 4 5 6 7 7 8 9 11 12 13 13 12 11 10 9 9 8 8 8 7 7 7 7 6 5 4 4 5 5 5 4 5 5 6
13 13 13 12 11 10 9 9 8 8 8 9 8 7 8 9 10 10 11 12 11 11 10 10 9 9 8 7 7 6 6 6 5 5 5 5 5 4 4 4 3 2 2 2 1 2 3 3 2 2 2 3 4 4 5 6 6 7 7 8 9 11 13 14 14 14 13 11 9 8 8 7 7 6 6 6 6 6 5 3 3 4 4 4 5 5 5
14 15 16 14 11 10 8 8 9 10 10 10 10 10 10 10 10 11 11 11 12 12 11 10 9 9 7 6 6 5 5 4 4 4 4 5 5 4 4 4 4 5 5 6 7 7 8 8 7 7 7 7 7 7 6 6 6 6 7 8 9 10 11 13 14 15 16 15 13 11 10 9 8 7 6 6 7 7 6 4 3 2 2 3 4 4 3
13 14 14 13 12 11 11 10 10 11 10 9 9 10 10 9 10 11 11 11 12 13 12 10 9 8 7 6 5 4 3 3 3 4 4 5 6 7 7 7 8 9 9 10 10 11 11 11 11 11 11 11 11 11 10 8 7 7 8 8 9 9 10 11 12 13 15 16 16 16 15 14 12 11 10 9 9 9 8 7 6 5 5 4 3 2 1
12 12 12 13 13 14 14 12 11 11 12 11 11 11 10 9 10 10 11 11 12 13 13 12 10 8 7 6 4 3 3 3 4 4 5 6 7 9 9 9 9 10 10 10 10 10 11 11 11 11 11 12 12 13 12 11 11 11 11 11 10 10 10 10 11 11 12 13 14 15 16 16 15 14 13 12 11 10 9 8 8 8 7 6 5 4 3
12 13 14 15 15 14 14 13 12 12 13 14 13 11 10 10 10 10 11 12 13 13 13 13 12 10 8 7 6 5 4 4 4 5 6 7 7 8 8 8 8 8 8 8 7 8 8 8 8 9 9 10 11 11 12 12 12 13 13 13 12 12 11 11 10 10 10 11 11 12 13 13 13 13 13 13 12 11 11 10 9 9 7 6 5 4 3
14 13 14 15 15 14 14 14 13 12 13 14 13 12 11 11 11 10 11 12 13 13 14 15 14 13 12 10 9 9 7 6 6 6 6 6 6 5 5 5 5 5 5 4 4 4 4 5 5 6 6 7 8 8 9 10 10 12 12 13 13 13 13 12 11 11 10 9 9 9 9 10 10 11 11 11 11 10 10 10 9 9 9 8 7 6 5
15 14 13 13 12 13 13 12 11 11 12 12 13 12 13 13 12 11 11 11 12 13 14 14 15 16 16 14 13 12 11 10 9 8 6 6 6 6 5 5 4 4 4 3 3 2 2 1 2 3 3 4 5 6 6 7 8 9 10 10 11 12 12 12 12 11 11 10 9 8 8 7 8 8 8 8 8 8 8 8 7 7 7 6 6 6 6
14 14 13 11 10 10 10 9 9 9 10 10 10 11 12 12 12 12 12 12 12 12 13 14 15 16 17 18 17 16 14 14 13 12 10 9 8 8 7 7 6 6 5 5 5 4 3 3 2 1 1 1 3 4 5 5 6 7 7 8 8 9 10 10 10 10 10 10 9 9 8 7 7 6 6 6 6 6 6 6 5 5 5 5 5 5 4
14 13 11 9 8 8 8 8 8 9 9 10 10 10 11 12 13 14 15 14 13 11 11 12 14 15 16 17 19 19 18 17 16 15 14 13 11 11 10 10 9 8 8 8 7 7 7 6 5 4 3 3 2 2 3 4 4 5 6 7 7 7 8 8 8 9 9 9 9 9 9 9 8 7 6 6 5 4 4 4 4 4 4 4 4 4 4
13 12 10 9 9 9 9 9 9 9 9 10 10 10 11 11 12 13 14 16 16 14 12 13 14 15 15 15 16 19 21 21 20 18 17 16 15 14 13 13 12 11 11 10 10 9 9 9 8 7 6 5 5 4 3 3 4 4 5 6 6 7 7 7 7 7 7 7 7 8 8 8 8 8 8 7 6 5 4 4 3 2 2 2 2 2 2
Wind_Direction
231 218 238 251 246 247 282 12 8 348 343 331 279 272 251 237 234 177 156 167 159 155 168 183 189 192 183 168 159 161 169 155 136 146 153 141 146 159 161 158 159 161 164 161 156 155 155 153 154 154 158 163 165 169 171 171 171 173 177 183 189 193 198 201 206 213 218 218 216 219 234 249 255 259 265 270 278 285 287 286 279 268 266 266 263 255 247
238 230 242 254 254 250 242 231 48 14 4 4 331 310 254 207 210 165 148 154 157 163 177 189 199 213 208 193 179 172 170 152 141 149 148 142 157 173 174 173 172 172 172 170 168 164 156 148 146 150 153 153 156 165 171 176 177 176 179 184 186 193 200 203 209 215 222 230 231 234 242 249 253 257 264 268 270 274 278 279 281 282 280 274 269 262 255
236 223 231 238 238 244 238 230 225 237 316 0 358 346 66 124 148 153 151 152 155 165 182 193 201 215 221 215 198 177 161 149 152 160 149 136 142 147 156 176 185 182 178 181 187 185 176 167 166 167 162 152 154 164 170 178 183 182 185 192 194 199 206 209 212 220 232 240 244 251 254 257 263 267 271 273 270 271 275 279 288 292 288 283 277 272 266
236 217 215 223 227 236 238 235 234 243 257 271 359 5 12 115 141 157 158 153 157 172 186 193 196 203 210 214 208 193 173 153 149 159 162 162 167 165 172 195 207 205 201 199 201 202 199 197 195 191 185 176 170 171 173 177 184 184 184 189 195 201 207 213 219 223 232 242 251 259 260 262 268 274 278 280 276 277 280 281 285 283 279 278 276 272 268
233 224 221 221 226 244 242 238 240 247 252 244 233 281 355 123 146 167 163 157 170 184 185 177 170 179 182 181 197 204 191 174 172 184 194 201 206 202 205 216 220 216 212 209 209 209 208 207 203 200 199 195 187 179 167 155 159 178 189 187 186 193 204 213 221 224 229 238 249 257 261 265 268 273 279 281 279 280 279 279 280 280 278 275 271 267 266
236 242 232 210 215 236 216 211 229 228 227 234 237 237 217 172 150 161 156 155 167 167 156 150 154 169 178 181 196 206 200 198 206 212 214 219 224 223 225 227 223 216 212 210 209 210 210 210 208 207 210 211 208 201 187 171 160 157 179 200 192 190 198 203 210 219 225 232 242 251 257 261 264 267 272 276 278 281 279 279 282 284 284 282 277 274 272
239 259 254 201 206 223 178 171 206 209 209 219 220 220 222 213 200 192 151 132 143 144 146 158 171 188 199 203 210 211 206 210 220 222 220 224 230 233 235 235 227 218 210 205 206 210 213 216 216 213 213 215 220 219 209 199 188 179 188 206 201 196 201 202 207 219 226 230 237 244 248 252 255 258 263 268 275 280 281 282 284 286 287 287 284 282 277
236 244 226 220 258 63 179 187 194 201 205 193 181 194 216 215 224 240 211 137 140 148 159 171 179 187 216 236 227 222 224 226 229 231 231 233 238 243 246 247 244 236 221 210 208 205 203 206 208 206 200 196 201 208 208 209 208 208 216 220 210 205 213 217 219 226 230 230 233 237 241 246 250 254 258 263 268 275 281 285 288 288 288 288 286 284 280
213 226 202 212 285 350 134 146 169 181 180 174 175 174 162 173 199 202 183 173 168 169 183 210 245 263 271 272 239 215 222 224 224 229 232 237 246 253 254 251 243 236 229 223 218 211 204 205 207 209 207 201 199 201 202 205 211 222 234 237 223 217 227 235 236 236 237 237 239 243 247 251 254 257 260 265 268 273 277 282 287 289 289 289 287 285 283
194 214 215 222 257 222 162 152 169 171 175 183 185 174 162 165 170 169 177 193 193 190 205 234 254 256 258 261 252 227 208 207 215 225 231 236 246 250 250 244 236 235 237 242 249 248 244 243 240 241 243 238 232 230 230 233 237 242 249 252 249 244 242 242 243 243 245 247 252 259 263 264 266 268 270 273 274 275 276 278 281 284 285 286 286 285 284
199 209 231 252 81 130 170 230 201 179 186 191 183 179 178 167 161 164 179 206 204 203 216 228 233 240 241 237 236 227 212 211 216 222 229 235 237 240 241 236 233 236 237 238 243 244 244 247 250 251 254 255 252 250 250 253 255 254 255 255 255 255 255 257 261 265 268 270 273 275 275 275 276 276 276 276 274 274 274 274 275 276 277 278 279 281 281
233 234 235 159 132 170 196 239 250 201 195 194 186 186 157 139 143 160 166 184 193 190 197 191 187 219 223 211 216 218 214 216 219 221 229 235 235 235 237 237 234 233 232 233 234 237 241 245 248 250 253 256 258 259 258 260 263 265 267 269 271 275 279 281 282 282 281 280 280 278 277 277 277 276 275 274 272 271 271 272 272 272 272 273 274 276 277
261 258 239 135 143 201 210 234 313 117 161 172 157 120 125 129 137 143 137 142 151 152 164 174 183 200 199 194 209 217 214 215 218 223 230 234 235 235 235 238 239 239 240 243 242 240 242 246 249 253 257 260 264 269 270 272 274 278 281 284 285 287 288 287 285 281 278 277 276 275 275 274 273 272 272 271 271 270 270 270 270 269 269 270 271 273 275
293 280 242 138 129 184 201 143 121 129 128 124 119 122 133 142 139 129 137 159 169 172 182 186 191 204 207 211 227 234 231 221 220 227 234 234 238 241 242 244 247 249 252 255 257 258 258 259 261 263 265 268 271 274 277 279 282 283 284 285 285 284 284 282 281 280 278 275 274 273 273 272 271 270 268 268 268 268 268 268 268 267 267 268 269 272 275
315 330 4 111 89 46 185 145 131 129 122 122 133 144 154 157 147 141 152 170 176 195 209 203 201 211 218 228 240 241 238 237 235 238 241 244 248 251 253 255 256 259 262 262 265 268 269 270 272 272 273 274 276 277 279 281 283 284 284 284 283 283 281 280 279 277 276 274 272 272 271 271 271 269 268 266 266 267 268 268 268 269 269 269 270 271 273
357 25 60 90 60 347 208 166 144 138 135 143 159 166 167 166 159 156 164 165 157 171 202 207 211 218 224 237 244 240 236 241 245 248 251 257 263 265 268 270 270 272 274 274 275 275 276 277 277 277 278 279 280 282 283 284 285 284 284 283 282 281 280 279 278 277 276 275 274 274 273 273 272 271 270 269 267 268 269 270 270 270 271 271 271 271 272
76 79 98 110 91 55 137 161 161 160 161 173 184 183 181 181 180 182 186 185 176 171 182 202 216 223 230 239 245 244 242 245 253 261 264 268 273 276 278 279 280 281 283 283 285 285 286 287 287 287 287 287 287 288 287 287 287 286 284 283 283 282 282 281 280 279 279 278 277 277 276 275 275 274 273 272 271 270 271 272 272 271 270 269 269 269 270
85 84 110 125 122 121 132 166 182 183 193 203 200 199 203 206 209 213 213 208 206 210 217 224 228 230 232 236 239 247 252 255 261 265 266 271 276 278 280 283 285 287 288 290 292 293 294 295 295 295 295 295 296 295 294 293 292 290 289 287 286 286 285 284 283 283 282 281 280 279 278 277 276 275 274 273 272 271 270 270 269 268 267 265 264 264 265
68 84 124 137 145 148 151 187 197 196 211 219 210 205 216 226 230 233 233 229 229 232 234 235 235 235 239 239 244 255 262 265 267 268 270 275 279 281 285 288 289 290 291 291 292 293 295 297 297 298 300 302 302 301 299 298 296 293 292 291 289 288 287 285 285 284 282 281 281 279 278 277 276 275 273 272 271 270 268 266 264 262 261 261 261 260 259
115 140 140 125 115 100 96 120 172 194 215 221 206 190 202 224 238 245 250 254 255 250 246 245 247 253 260 259 262 271 276 276 277 278 280 283 285 286 289 290 290 291 291 291 292 295 298 300 300 302 304 305 305 304 302 301 299 297 295 294 293 291 289 288 286 284 283 283 281 280 279 277 276 276 274 272 270 269 267 263 260 257 255 254 256 258 256
127 145 139 127 122 114 114 138 230 267 202 192 190 188 195 213 230 241 250 255 256 253 254 258 260 263 265 263 264 270 273 274 277 279 281 283 284 285 285 286 287 288 288 289 293 296 298 299 299 301 302 303 303 302 301 300 299 297 295 294 293 292 290 290 288 287 285 284 281 280 278 276 275 276 275 274 273 270 267 263 259 256 253 249 248 252 254
152 163 150 127 124 162 154 139 118 86 110 122 133 149 173 200 216 227 239 252 256 251 248 255 262 267 269 269 266 265 267 270 273 275 278 281 282 282 283 284 285 286 288 291 294 295 295 295 296 298 300 301 302 302 302 301 298 296 295 293 292 292 292 291 291 289 288 286 283 282 280 277 275 274 273 274 274 273 270 265 260 258 256 251 246 244 246
161 184 172 122 110 186 165 134 119 118 110 113 136 137 156 221 234 237 236 238 256 263 264 263 262 265 269 272 271 268 268 271 273 275 279 282 281 280 281 283 284 287 290 293 293 292 293 295 297 300 303 304 305 305 303 301 299 297 297 295 295 295 295 294 294 292 291 290 288 287 285 283 280 277 275 274 273 273 271 267 261 258 255 252 248 244 245
150 175 160 115 129 165 156 141 148 144 127 159 191 192 187 211 260 288 284 267 261 274 282 281 272 267 269 272 272 271 270 271 274 278 283 283 281 280 282 284 286 288 290 290 289 291 293 296 301 305 307 307 307 306 305 303 301 300 299 298 297 297 296 295 294 293 293 293 293 292 291 289 287 285 282 278 275 273 270 265 260 256 251 247 244 243 245
158 147 121 106 133 161 165 163 176 183 192 207 216 234 247 253 277 293 292 282 273 277 285 285 281 278 276 273 272 272 271 272 275 280 283 283 282 284 284 283 284 285 286 287 289 292 296 300 304 307 307 306 306 306 306 306 304 303 301 299 297 297 296 296 295 295 296 296 295 294 293 292 291 290 288 284 281 277 273 268 262 256 250 244 240 238 241
159 138 127 119 126 146 184 194 188 197 234 226 221 245 263 268 269 268 271 277 280 280 284 285 284 284 282 277 274 272 273 275 276 279 281 281 282 283 282 281 283 284 284 285 288 292 297 302 304 305 306 307 309 311 311 310 308 306 304 301 299 299 300 300 299 299 298 298 297 297 297 295 294 292 290 287 285 282 280 276 268 260 254 247 242 238 237
156 141 149 158 162 197 214 212 221 245 266 259 259 281 286 278 262 252 268 284 285 284 288 286 283 283 283 281 279 276 275 277 276 276 278 279 279 280 279 279 280 280 278 281 285 289 296 301 304 307 311 314 317 318 317 313 310 308 305 304 303 305 305 303 300 298 297 298 299 299 299 298 296 294 291 288 285 283 280 278 273 264 255 248 243 239 237
172 174 172 175 190 214 211 214 237 256 254 251 266 277 274 272 268 265 277 287 285 286 290 287 283 283 283 282 282 281 278 276 276 276 277 277 277 278 278 278 277 273 271 276 283 291 300 306 311 316 320 322 323 322 318 314 311 309 308 308 309 310 309 306 304 304 304 304 304 304 303 302 299 296 293 289 284 280 278 275 270 263 256 247 238 236 237
186 191 180 167 182 204 204 220 256 258 232 256 273 264 251 267 272 277 300 313 302 289 284 282 283 287 290 288 285 283 279 278 278 278 278 277 277 277 276 271 266 263 266 275 287 300 309 316 320 323 324 325 324 322 320 317 315 314 315 315 314 313 313 313 314 314 314 314 313 313 311 309 305 301 296 291 283 276 272 268 264 261 257 247 234 228 232
214 211 197 188 202 218 229 259 273 266 255 264 270 263 266 275 273 271 287 301 288 278 280 283 285 291 296 293 288 285 281 279 278 278 276 275 275 274 267 256 251 257 266 277 295 310 318 323 324 322 325 329 328 327 331 332 329 324 321 316 315 317 319 321 322 321 321 321 321 319 316 313 310 305 300 294 286 276 267 262 260 260 254 241 231 228 229
222 214 207 218 236 238 239 253 262 265 267 265 262 254 254 271 278 272 239 234 249 268 284 288 291 299 303 297 290 287 282 277 275 273 272 272 269 261 248 236 236 248 261 281 309 320 324 324 321 321 330 337 336 337 340 338 331 326 322 318 319 324 327 328 328 329 330 329 328 326 324 321 318 315 309 303 293 281 268 258 257 256 246 233 228 228 226
226 223 231 250 264 263 262 259 258 263 269 269 269 266 256 259 275 278 252 243 255 274 285 289 298 307 306 300 295 288 281 278 276 272 268 264 254 237 226 225 231 243 263 299 322 324 320 318 317 324 338 345 343 341 340 335 332 333 330 327 329 332 334 336 337 338 339 338 336 337 338 339 340 338 331 323 312 296 273 254 247 241 226 219 223 229 230
225 227 241 252 250 253 265 265 264 271 273 265 263 267 267 263 266 269 267 266 271 279 285 292 304 309 304 301 296 287 281 282 279 270 258 242 225 214 215 222 229 241 273 318 325 317 313 316 321 331 343 349 347 343 340 339 344 347 340 334 336 340 343 347 348 347 348 351 353 355 0 4 3 359 355 349 340 325 283 240 226 212 205 213 228 238 238
227 226 239 248 247 251 256 253 254 265 270 264 264 271 274 266 262 268 273 277 278 282 285 292 303 309 307 303 294 287 290 294 284 260 227 209 202 205 214 221 226 244 291 321 317 310 311 319 326 333 343 349 349 347 345 348 354 354 346 339 342 349 353 355 354 353 360 11 16 17 17 14 7 3 5 10 12 18 40 191 198 199 213 231 229 207 196
238 232 236 247 255 266 263 256 258 264 260 252 257 267 273 267 265 270 274 272 271 278 289 297 304 309 312 310 297 285 289 291 254 195 187 191 195 204 216 222 226 249 283 296 301 305 314 320 323 332 342 347 348 349 350 355 359 355 348 345 351 358 1 3 1 1 13 30 35 32 26 18 11 10 16 21 22 22 28 56 188 196 202 191 167 145 137
239 232 234 242 253 270 278 279 280 281 275 263 258 259 255 247 256 268 278 284 283 288 306 317 308 298 302 308 305 295 288 274 222 186 188 198 205 215 223 228 238 254 267 281 292 304 316 318 320 332 342 344 345 349 353 358 359 354 350 356 4 4 4 8 10 10 17 31 40 41 35 26 21 20 21 20 18 18 31 57 85 93 98 120 135 134 139
235 230 232 239 249 266 280 287 290 291 286 271 261 257 250 245 254 265 280 292 285 291 320 334 316 297 292 292 284 282 288 282 265 245 238 233 233 239 242 242 247 254 261 271 283 300 314 315 318 332 340 338 341 346 350 356 358 355 357 8 13 7 6 11 14 15 16 17 24 35 36 24 11 4 6 14 18 16 18 33 44 46 59 95 105 10 272
230 226 228 238 251 267 279 288 295 296 285 261 257 265 264 261 266 273 279 270 263 278 311 331 319 302 294 284 277 279 282 276 267 265 265 260 252 251 251 248 249 254 260 270 282 296 309 309 313 329 335 330 333 339 343 352 359 359 4 15 17 10 8 12 12 13 15 10 1 359 356 349 349 355 2 9 11 9 10 15 18 14 8 329 308 328 322
227 228 236 245 252 260 271 280 289 287 267 252 261 270 270 264 263 268 277 284 283 290 309 324 320 314 306 287 279 280 282 278 273 269 269 268 261 252 246 243 245 251 263 277 284 291 298 301 307 323 325 317 321 329 336 347 357 1 9 21 23 19 17 19 15 12 13 9 356 342 334 330 338 353 4 6 4 6 14 18 2 360 8 339 296 316 329
229 235 249 257 260 264 269 274 278 275 269 269 272 272 270 263 258 259 266 273 276 285 305 323 324 321 314 298 287 283 283 282 279 273 268 266 261 253 247 243 244 253 265 275 280 283 290 294 297 303 306 304 314 328 337 346 354 359 10 23 27 25 26 28 24 19 16 12 5 357 348 341 340 344 351 358 357 351 346 334 323 333 352 337 309 314 323
240 245 249 252 257 264 268 268 269 271 272 271 268 266 263 257 252 256 260 257 255 268 294 317 321 318 316 309 297 288 281 276 270 265 262 257 254 257 257 250 246 254 263 271 278 282 284 282 279 284 292 301 319 337 343 344 348 356 11 22 26 27 32 32 27 25 24 20 15 12 5 358 352 348 349 355 357 336 315 310 309 309 315 312 301 296 290
249 252 254 255 256 259 262 266 268 270 270 269 265 264 266 265 258 256 260 262 263 272 287 303 311 312 312 307 297 290 286 275 262 255 253 246 245 254 259 252 246 252 258 264 274 276 268 247 245 262 288 318 346 356 353 347 349 359 14 23 25 30 34 34 30 29 30 26 25 25 20 12 7 3 357 358 2 354 335 321 314 309 304 298 293 294 293
250 248 251 253 255 258 265 272 275 274 274 276 275 269 266 265 261 256 256 259 261 266 275 289 302 308 308 303 297 292 284 272 258 246 238 230 226 234 240 233 222 214 197 174 152 124 110 103 97 87 65 43 35 22 6 356 360 9 18 24 27 31 36 37 35 35 36 34 33 36 34 28 24 21 17 15 14 9 359 347 330 317 312 307 303 305 309
255 249 244 239 237 242 253 266 274 275 274 278 283 279 271 265 262 259 257 257 258 259 264 276 290 300 304 301 297 290 278 262 243 223 215 209 200 194 190 177 160 144 131 120 111 102 97 92 86 79 73 65 55 44 28 13 11 18 23 26 29 32 36 38 38 39 40 40 39 39 40 38 36 33 32 35 34 30 28 32 25 360 339 325 310 302 310
274 268 260 253 250 248 240 237 248 257 255 256 269 278 275 266 261 259 256 255 256 257 256 261 273 286 293 290 285 280 270 242 210 197 195 184 167 158 153 146 138 129 120 112 106 99 93 87 82 77 71 65 61 55 47 38 36 37 35 32 31 32 33 35 38 40 42 42 43 43 42 40 38 34 31 30 30 30 33 36 38 41 49 48 26 6 39
284 284 281 278 273 264 254 249 256 263 261 260 268 275 275 268 261 258 256 254 254 254 253 253 256 263 268 266 260 250 231 204 182 173 165 154 146 143 139 135 129 123 116 110 105 100 94 88 82 76 71 66 62 57 52 47 45 46 45 40 36 34 33 32 33 36 39 40 43 45 45 44 43 41 39 37 36 35 36 38 39 43 53 63 62 59 76
276 281 283 283 280 273 266 262 262 263 265 267 269 267 264 264 264 260 256 254 254 253 252 250 248 247 246 245 241 233 218 202 186 171 157 148 143 141 137 133 129 126 123 118 112 106 100 94 87 79 72 67 63 59 53 48 46 46 45 43 40 38 36 33 32 32 34 36 39 42 45 47 47 46 45 45 47 49 51 54 56 59 67 78 88 95 109
268 272 277 278 277 273 269 265 260 257 262 268 267 261 257 262 267 267 262 259 256 253 251 249 246 243 238 235 235 236 231 223 215 201 178 162 158 156 153 152 151 146 142 137 128 116 104 96 90 83 74 67 63 59 54 49 46 45 44 42 41 39 38 36 34 33 31 32 33 36 39 43 47 48 49 49 50 52 55 59 63 68 72 78 85 91 97
272 274 279 280 275 267 264 265 266 264 263 265 264 259 257 260 264 266 265 262 259 256 253 250 247 245 241 235 232 234 235 234 231 226 213 201 195 191 190 196 198 194 192 196 190 172 154 118 91 80 69 62 58 53 47 43 42 42 41 39 38 37 36 35 34 34 33 32 32 32 33 35 39 42 45 47 49 51 54 57 61 67 71 76 80 85 88
271 269 269 270 268 262 260 266 272 270 267 266 264 259 257 260 264 266 265 260 254 252 252 250 248 247 245 240 234 231 233 237 239 238 233 227 223 219 216 218 224 227 228 232 236 238 236 234 241 268 347 30 40 39 33 28 29 31 32 31 31 32 31 29 29 30 30 30 30 31 32 34 34 35 37 40 43 45 47 50 54 59 64 69 74 79 83
272 266 258 254 257 261 265 270 273 271 271 272 270 265 262 263 266 268 267 260 249 240 242 247 249 248 248 246 242 237 233 233 236 239 239 236 233 234 234 233 233 238 240 241 243 247 249 247 249 255 263 278 308 340 356 2 9 16 18 16 15 17 19 20 21 23 24 24 26 28 29 30 30 30 30 32 33 34 36 39 42 47 51 58 66 72 76
270 262 252 245 247 254 261 266 270 273 276 278 277 275 272 269 266 265 265 260 251 241 240 246 248 245 244 247 249 247 242 236 232 235 240 240 237 237 240 241 241 244 247 247 246 249 252 253 253 253 256 264 274 281 291 310 332 348 357 359 1 2 2 3 6 8 10 13 16 20 24 27 28 27 27 27 26 23 22 19 16 17 20 27 39 51 64
Height
3046 3046 3047 3047 3049 3050 3051 3052 3052 3051 3050 3049 3051 3052 3053 3054 3055 3057 3060 3060 3061 3063 3065 3067 3068 3068 3068 3070 3072 3073 3074 3076 3078 3078 3078 3079 3079 3079 3080 3081 3081 3083 3084 3085 3086 3087 3089 3090 3091 3093 3094 3095 3096 3097 3098 3099 3101 3102 3103 3104 3105 3106 3107 3108 3109 3109 3109 3109 3110 3111 3112 3113 3114 3115 3116 3116 3116 3117 3117 3117 3118 3119 3120 3121 3122 3123 3124
3044 3045 3046 3046 3047 3049 3051 3052 3053 3054 3053 3053 3053 3053 3052 3052 3053 3055 3058 3058 3060 3062 3064 3065 3066 3067 3068 3069 3071 3073 3074 3076 3078 3078 3078 3078 3078 3078 3079 3080 3081 3082 3083 3084 3085 3085 3087 3088 3089 3091 3092 3094 3096 3097 3098 3099 3100 3101 3102 3103 3104 3105 3106 3107 3108 3108 3108 3109 3110 3110 3111 3112 3113 3114 3114 3115 3115 3115 3115 3116 3116 3117 3118 3119 3120 3121 3123
3043 3044 3045 3046 3047 3048 3049 3051 3052 3054 3054 3055 3056 3055 3053 3053 3053 3054 3055 3056 3058 3061 3062 3064 3065 3066 3068 3069 3071 3072 3074 3076 3077 3077 3077 3077 3078 3078 3078 3078 3079 3079 3080 3081 3082 3083 3084 3085 3086 3088 3090 3092 3094 3096 3097 3098 3099 3100 3101 3102 3103 3103 3104 3106 3107 3108 3108 3109 3109 3110 3111 3111 3112 3112 3113 3113 3114 3114 3114 3115 3116 3117 3117 3117 3119 3120 3121
3042 3043 3045 3046 3047 3048 3048 3049 3051 3053 3054 3055 3056 3056 3055 3055 3055 3054 3054 3056 3058 3060 3061 3063 3064 3064 3066 3068 3069 3071 3073 3075 3076 3075 3075 3075 3075 3075 3075 3074 3075 3076 3077 3078 3079 3080 3081 3082 3084 3085 3086 3089 3091 3093 3095 3097 3098 3099 3100 3101 3102 3103 3104 3105 3106 3107 3108 3109 3109 3109 3110 3111 3111 3111 3111 3112 3112 3113 3113 3114 3115 3116 3116 3117 3118 3119 3120
3042 3043 3044 3046 3047 3048 3048 3049 3050 3052 3052 3053 3055 3056 3056 3057 3057 3055 3056 3058 3059 3059 3061 3062 3063 3063 3064 3066 3067 3068 3071 3072 3072 3071 3071 3070 3071 3070 3070 3072 3073 3074 3075 3076 3077 3077 3079 3080 3082 3083 3084 3085 3087 3090 3092 3094 3096 3098 3099 3099 3100 3101 3102 3104 3105 3106 3107 3108 3108 3108 3109 3110 3110 3110 3110 3111 3111 3112 3112 3113 3115 3115 3116 3116 3116 3117 3118
3042 3043 3043 3045 3047 3047 3047 3047 3049 3050 3051 3053 3054 3055 3056 3057 3057 3056 3057 3058 3059 3060 3061 3062 3062 3062 3062 3062 3062 3064 3066 3066 3067 3067 3067 3067 3068 3068 3069 3070 3072 3073 3074 3076 3076 3077 3079 3080 3081 3082 3083 3084 3085 3086 3088 3089 3092 3095 3096 3096 3096 3098 3099 3101 3103 3103 3105 3106 3106 3107 3108 3108 3108 3109 3109 3109 3109 3110 3111 3112 3113 3114 3114 3114 3114 3115 3116
3042 3043 3044 3045 3046 3045 3046 3047 3048 3050 3051 3052 3053 3054 3055 3056 3057 3057 3058 3058 3059 3061 3062 3061 3061 3061 3061 3062 3062 3064 3065 3065 3066 3067 3068 3068 3069 3069 3070 3072 3074 3075 3077 3078 3079 3080 3080 3081 3081 3082 3083 3084 3085 3086 3087 3087 3088 3089 3091 3091 3093 3094 3096 3098 3100 3101 3102 3103 3104 3105 3106 3106 3107 3107 3107 3107 3107 3107 3107 3108 3109 3110 3111 3112 3112 3113 3114
3042 3043 3045 3046 3046 3046 3046 3047 3048 3049 3050 3051 3052 3053 3055 3056 3056 3057 3059 3060 3060 3061 3061 3060 3061 3062 3063 3064 3065 3066 3067 3067 3068 3069 3071 3071 3071 3072 3073 3075 3076 3078 3078 3079 3079 3080 3080 3081 3082 3083 3084 3085 3086 3087 3088 3088 3088 3087 3087 3089 3091 3093 3095 3097 3098 3099 3100 3101 3102 3103 3104 3104 3105 3105 3105 3105 3106 3106 3105 3105 3105 3106 3107 3108 3109 3109 3110
3043 3044 3044 3045 3045 3046 3047 3046 3048 3049 3050 3050 3052 3053 3054 3056 3056 3057 3058 3059 3059 3059 3058 3059 3061 3063 3063 3064 3065 3065 3066 3067 3068 3069 3070 3072 3073 3073 3074 3076 3077 3078 3079 3080 3080 3081 3082 3083 3084 3085 3086 3087 3087 3088 3088 3089 3090 3089 3089 3091 3093 3094 3095 3096 3097 3097 3098 3099 3100 3101 3102 3103 3103 3103 3103 3103 3104 3104 3103 3103 3103 3103 3103 3104 3104 3105 3106
3042 3043 3044 3045 3046 3047 3047 3046 3047 3048 3049 3050 3051 3053 3054 3054 3055 3056 3055 3057 3059 3059 3058 3059 3061 3061 3061 3062 3062 3063 3064 3066 3067 3068 3069 3071 3073 3074 3074 3076 3077 3078 3079 3080 3081 3082 3083 3084 3084 3085 3086 3087 3088 3088 3089 3090 3090 3090 3090 3091 3092 3093 3094 3094 3095 3095 3096 3096 3097 3099 3100 3101 3100 3100 3100 3101 3101 3101 3101 3101 3101 3101 3100 3100 3100 3100 3101
3040 3041 3042 3044 3046 3047 3046 3046 3046 3047 3048 3049 3051 3053 3054 3054 3054 3055 3054 3055 3058 3059 3060 3060 3060 3060 3059 3059 3060 3062 3064 3065 3066 3067 3069 3070 3072 3073 3073 3075 3076 3077 3078 3078 3079 3080 3082 3083 3083 3084 3085 3085 3086 3087 3087 3088 3088 3088 3089 3089 3089 3090 3091 3092 3092 3093 3093 3094 3094 3096 3097 3098 3097 3097 3097 3097 3097 3097 3097 3097 3097 3097 3097 3097 3096 3096 3096
3039 3040 3041 3043 3046 3047 3046 3046 3047 3047 3048 3050 3051 3053 3054 3055 3055 3055 3055 3055 3057 3058 3060 3061 3060 3059 3059 3059 3059 3061 3062 3063 3065 3067 3068 3069 3071 3072 3072 3073 3074 3075 3076 3076 3078 3079 3080 3080 3081 3081 3082 3082 3083 3083 3084 3084 3085 3085 3086 3086 3086 3087 3087 3088 3089 3089 3090 3091 3091 3092 3093 3094 3093 3093 3093 3093 3093 3093 3093 3092 3092 3093 3093 3093 3093 3093 3092
3038 3039 3041 3042 3044 3046 3046 3046 3047 3047 3048 3050 3052 3053 3056 3056 3056 3056 3056 3056 3056 3057 3058 3059 3059 3059 3059 3059 3059 3060 3061 3063 3064 3065 3067 3068 3069 3070 3071 3072 3072 3073 3074 3075 3076 3077 3077 3078 3078 3079 3079 3080 3080 3080 3081 3081 3082 3082 3083 3083 3083 3083 3084 3084 3085 3086 3087 3087 3088 3088 3089 3089 3089 3089 3088 3088 3088 3088 3088 3088 3087 3088 3088 3089 3088 3088 3088
3038 3039 3040 3041 3044 3045 3045 3046 3047 3047 3048 3051 3052 3053 3055 3056 3056 3057 3056 3056 3056 3057 3057 3058 3058 3058 3059 3059 3059 3060 3062 3063 3064 3065 3066 3067 3068 3069 3069 3070 3071 3071 3072 3073 3073 3074 3075 3076 3076 3076 3077 3077 3077 3078 3078 3078 3078 3079 3079 3079 3079 3080 3080 3080 3081 3082 3082 3083 3083 3083 3083 3083 3083 3083 3083 3083 3082 3082 3082 3082 3082 3083 3083 3084 3084 3084 3083
3038 3039 3040 3042 3044 3045 3045 3046 3046 3047 3048 3050 3051 3051 3052 3053 3054 3055 3054 3054 3056 3056 3056 3057 3058 3058 3058 3058 3058 3060 3061 3062 3063 3064 3065 3065 3066 3067 3068 3068 3069 3070 3070 3071 3072 3072 3073 3073 3073 3074 3074 3074 3074 3075 3075 3075 3075 3075 3075 3075 3075 3075 3075 3075 3075 3076 3076 3076 3076 3077 3077 3077 3076 3076 3077 3077 3077 3077 3077 3077 3077 3078 3078 3079 3079 3079 3079
3039 3040 3042 3043 3044 3044 3045 3046 3046 3047 3048 3049 3050 3050 3050 3051 3052 3052 3051 3052 3054 3055 3055 3056 3056 3057 3057 3057 3057 3059 3061 3062 3062 3063 3063 3064 3065 3065 3066 3067 3067 3067 3068 3068 3069 3069 3070 3070 3070 3071 3071 3071 3071 3071 3071 3071 3071 3070 3070 3070 3069 3069 3069 3069 3069 3069 3069 3069 3070 3069 3069 3069 3069 3069 3070 3070 3070 3070 3071 3071 3071 3071 3072 3072 3073 3073 3073
3040 3041 3043 3044 3044 3044 3045 3046 3046 3047 3047 3048 3049 3049 3050 3050 3051 3051 3051 3052 3052 3053 3054 3054 3055 3056 3057 3057 3057 3058 3059 3060 3061 3061 3061 3062 3062 3063 3063 3064 3064 3065 3064 3065 3065 3065 3066 3066 3066 3066 3066 3066 3066 3066 3066 3066 3065 3065 3064 3064 3063 3063 3063 3063 3062 3062 3062 3062 3062 3062 3062 3062 3062 3062 3062 3062 3062 3063 3063 3063 3063 3064 3064 3065 3066 3066 3067
3041 3042 3043 3044 3044 3044 3044 3044 3045 3046 3046 3046 3047 3048 3049 3049 3050 3051 3052 3052 3052 3053 3053 3053 3054 3055 3056 3056 3057 3057 3058 3059 3059 3059 3059 3060 3060 3060 3060 3061 3061 3061 3061 3061 3061 3061 3061 3061 3061 3061 3061 3061 3061 3060 3060 3060 3060 3059 3058 3058 3058 3057 3057 3056 3056 3056 3055 3055 3055 3055 3055 3055 3054 3054 3054 3054 3054 3055 3055 3055 3056 3056 3057 3058 3059 3060 3061
3042 3043 3043 3043 3044 3043 3043 3043 3044 3044 3044 3045 3046 3047 3048 3048 3049 3050 3051 3052 3052 3052 3052 3052 3053 3053 3054 3055 3056 3056 3056 3057 3057 3057 3057 3058 3058 3057 3057 3058 3058 3058 3058 3057 3057 3057 3057 3057 3056 3056 3056 3056 3055 3055 3054 3054 3054 3053 3053 3052 3052 3052 3052 3051 3051 3050 3049 3049 3048 3048 3048 3047 3047 3047 3047 3046 3046 3047 3047 3048 3048 3049 3050 3051 3051 3052 3054
3042 3043 3043 3043 3043 3043 3043 3043 3043 3044 3044 3044 3045 3046 3047 3047 3048 3048 3049 3049 3050 3051 3051 3051 3051 3051 3052 3054 3055 3055 3054 3054 3054 3054 3054 3055 3055 3055 3055 3055 3054 3054 3054 3054 3053 3053 3053 3052 3052 3052 3052 3051 3051 3050 3049 3049 3048 3047 3047 3046 3046 3046 3045 3045 3044 3044 3043 3043 3042 3041 3041 3040 3040 3039 3039 3039 3039 3039 3040 3040 3040 3041 3042 3043 3044 3045 3046
3042 3043 3043 3043 3044 3044 3044 3043 3043 3043 3043 3044 3044 3045 3046 3047 3047 3047 3047 3048 3048 3049 3049 3050 3050 3050 3051 3052 3053 3053 3053 3052 3051 3051 3052 3052 3053 3052 3052 3052 3051 3051 3051 3051 3051 3051 3050 3050 3049 3049 3049 3048 3048 3047 3046 3045 3044 3043 3043 3042 3041 3040 3039 3039 3038 3038 3037 3037 3036 3035 3034 3034 3034 3033 3032 3032 3032 3033 3033 3033 3033 3033 3034 3035 3037 3039 3040
3042 3043 3043 3043 3044 3043 3043 3043 3043 3043 3044 3044 3045 3045 3046 3046 3046 3046 3047 3047 3047 3047 3048 3049 3049 3049 3049 3050 3051 3051 3050 3050 3049 3049 3049 3050 3050 3050 3049 3049 3049 3048 3048 3048 3048 3048 3048 3047 3047 3047 3046 3046 3045 3044 3043 3042 3041 3040 3039 3038 3037 3036 3035 3034 3033 3032 3031 3031 3030 3029 3028 3028 3028 3027 3027 3026 3026 3026 3027 3027 3027 3027 3028 3029 3031 3032 3034
3042 3042 3042 3043 3043 3043 3043 3044 3044 3044 3045 3045 3045 3045 3045 3045 3045 3045 3046 3046 3046 3046 3046 3047 3047 3047 3047 3047 3048 3048 3048 3047 3046 3046 3046 3047 3047 3047 3046 3046 3046 3045 3046 3046 3046 3045 3045 3045 3045 3044 3044 3043 3042 3041 3040 3039 3038 3036 3035 3034 3033 3032 3031 3030 3028 3027 3026 3025 3024 3023 3022 3022 3021 3021 3021 3020 3020 3020 3021 3022 3022 3022 3023 3024 3025 3026 3027
3042 3042 3042 3043 3043 3042 3042 3043 3043 3044 3044 3045 3045 3045 3045 3044 3044 3044 3044 3045 3045 3044 3044 3044 3044 3045 3045 3045 3045 3045 3045 3044 3043 3043 3044 3044 3043 3043 3044 3043 3043 3043 3043 3043 3043 3043 3043 3043 3043 3042 3041 3040 3040 3039 3037 3036 3034 3033 3032 3030 3029 3028 3027 3025 3024 3023 3022 3021 3020 3019 3018 3017 3016 3015 3015 3015 3014 3014 3014 3015 3016 3016 3017 3018 3020 3021 3021
3042 3042 3043 3042 3042 3042 3042 3042 3042 3042 3043 3043 3043 3043 3043 3043 3043 3043 3042 3043 3043 3043 3043 3042 3041 3041 3042 3042 3042 3042 3042 3041 3041 3041 3041 3041 3040 3041 3041 3041 3041 3041 3041 3041 3041 3041 3041 3041 3041 3040 3039 3038 3037 3036 3034 3033 3032 3030 3029 3027 3026 3025 3023 3022 3021 3019 3018 3017 3016 3015 3014 3013 3012 3011 3010 3009 3008 3008 3008 3008 3009 3009 3011 3012 3013 3015 3016
3041 3042 3042 3043 3042 3042 3042 3042 3042 3041 3041 3042 3042 3042 3041 3041 3041 3041 3040 3041 3041 3041 3041 3040 3039 3039 3039 3039 3039 3039 3039 3039 3039 3039 3038 3038 3038 3039 3039 3039 3039 3039 3039 3040 3040 3040 3040 3039 3039 3038 3037 3036 3035 3033 3032 3030 3029 3027 3026 3024 3023 3021 3020 3019 3017 3016 3015 3014 3013 3011 3010 3009 3008 3006 3005 3004 3003 3003 3002 3002 3002 3003 3004 3006 3007 3009 3011
3042 3042 3042 3043 3043 3042 3042 3042 3041 3040 3040 3041 3041 3040 3039 3039 3039 3039 3039 3039 3039 3039 3039 3038 3037 3036 3037 3036 3036 3036 3037 3037 3037 3036 3036 3036 3036 3037 3037 3037 3037 3038 3038 3038 3038 3038 3038 3038 3037 3036 3035 3034 3032 3030 3029 3027 3026 3024 3023 3021 3020 3019 3018 3016 3015 3014 3013 3011 3010 3008 3006 3005 3004 3002 3001 3000 2999 2997 2997 2996 2996 2997 2998 2999 3001 3003 3006
3041 3041 3041 3042 3042 3041 3041 3040 3040 3040 3040 3040 3039 3040 3039 3038 3037 3038 3038 3038 3037 3037 3037 3036 3035 3034 3035 3034 3034 3034 3034 3034 3034 3034 3034 3034 3035 3035 3035 3036 3036 3036 3036 3036 3037 3037 3037 3036 3035 3034 3033 3031 3029 3028 3026 3025 3023 3021 3020 3019 3018 3017 3015 3014 3013 3011 3010 3008 3006 3005 3003 3001 2999 2998 2996 2995 2994 2993 2992 2991 2991 2991 2992 2994 2996 2999 3001
3040 3039 3039 3039 3040 3039 3039 3039 3039 3038 3039 3038 3038 3038 3038 3037 3036 3037 3037 3037 3036 3035 3035 3034 3033 3032 3032 3032 3032 3032 3032 3032 3032 3032 3032 3032 3033 3033 3034 3034 3034 3035 3035 3035 3035 3035 3035 3034 3033 3032 3031 3029 3027 3026 3024 3022 3020 3019 3018 3016 3015 3014 3013 3011 3010 3008 3006 3005 3003 3001 2999 2997 2995 2993 2991 2990 2989 2988 2987 2987 2987 2988 2988 2990 2993 2995 2998
3039 3038 3038 3038 3038 3038 3038 3038 3038 3038 3038 3038 3038 3037 3037 3036 3035 3035 3036 3036 3035 3034 3033 3032 3031 3031 3031 3030 3030 3030 3030 3030 3030 3030 3030 3030 3031 3031 3032 3032 3033 3033 3034 3034 3034 3033 3033 3032 3031 3030 3029 3028 3026 3024 3022 3020 3018 3017 3016 3014 3013 3012 3011 3009 3007 3006 3004 3002 3000 2997 2995 2993 2990 2988 2987 2985 2984 2983 2983 2983 2984 2985 2986 2987 2990 2992 2995
3038 3037 3037 3037 3037 3037 3038 3038 3038 3037 3037 3037 3037 3036 3036 3035 3034 3033 3034 3034 3033 3032 3031 3030 3029 3029 3029 3028 3028 3028 3028 3027 3028 3028 3028 3029 3029 3030 3030 3031 3031 3032 3032 3032 3032 3032 3031 3031 3030 3029 3028 3026 3024 3023 3020 3018 3017 3015 3014 3013 3011 3010 3009 3007 3005 3004 3001 2999 2997 2994 2992 2990 2987 2986 2984 2982 2981 2980 2979 2980 2981 2982 2983 2985 2988 2990 2992
3037 3036 3036 3036 3036 3036 3037 3037 3037 3036 3036 3036 3035 3035 3034 3034 3033 3032 3032 3032 3031 3030 3029 3028 3028 3028 3027 3027 3026 3026 3026 3026 3026 3026 3026 3027 3028 3028 3029 3030 3030 3031 3031 3031 3030 3030 3030 3030 3029 3028 3026 3025 3023 3021 3019 3017 3015 3014 3012 3011 3010 3009 3007 3006 3004 3002 2999 2997 2994 2992 2990 2988 2986 2984 2982 2980 2978 2977 2977 2978 2979 2980 2981 2984 2986 2988 2990
3036 3036 3036 3035 3035 3035 3036 3036 3036 3035 3035 3035 3034 3033 3032 3032 3032 3031 3030 3029 3029 3028 3028 3027 3027 3027 3026 3026 3025 3024 3024 3024 3024 3024 3025 3025 3026 3027 3028 3028 3029 3029 3029 3029 3029 3029 3029 3028 3028 3027 3025 3024 3022 3021 3018 3016 3014 3013 3011 3010 3009 3007 3006 3004 3002 3000 2998 2996 2993 2991 2990 2988 2986 2984 2982 2980 2978 2977 2977 2977 2978 2980 2982 2984 2986 2987 2989
3035 3035 3035 3034 3034 3034 3035 3035 3034 3034 3034 3034 3033 3031 3030 3031 3031 3030 3029 3028 3028 3027 3027 3026 3026 3026 3025 3025 3024 3024 3023 3023 3023 3023 3024 3024 3025 3026 3027 3027 3028 3028 3028 3028 3028 3028 3028 3027 3027 3026 3024 3023 3022 3020 3018 3016 3014 3012 3011 3009 3008 3006 3005 3003 3001 2999 2997 2995 2993 2992 2991 2989 2988 2986 2984 2982 2980 2979 2979 2980 2981 2982 2984 2985 2987 2988 2989
3034 3034 3034 3033 3033 3033 3033 3032 3032 3032 3032 3032 3031 3030 3030 3030 3030 3028 3028 3027 3027 3026 3026 3026 3026 3025 3024 3024 3024 3023 3023 3023 3023 3023 3024 3024 3025 3025 3026 3026 3026 3026 3026 3027 3027 3027 3027 3026 3026 3025 3023 3022 3021 3020 3018 3016 3014 3012 3010 3008 3007 3005 3004 3002 3001 2999 2997 2996 2994 2993 2992 2991 2989 2988 2987 2985 2984 2983 2983 2983 2984 2984 2985 2986 2987 2989 2990
3033 3032 3032 3032 3032 3032 3031 3031 3030 3029 3029 3029 3029 3029 3029 3029 3029 3028 3027 3027 3026 3026 3026 3025 3025 3024 3024 3023 3023 3023 3023 3023 3023 3023 3023 3024 3024 3025 3025 3025 3025 3025 3025 3026 3026 3026 3026 3025 3025 3024 3023 3021 3020 3019 3018 3016 3014 3012 3010 3008 3006 3005 3004 3002 3001 2999 2998 2996 2995 2994 2993 2992 2991 2990 2989 2988 2987 2987 2986 2986 2986 2987 2987 2988 2989 2990 2992
3031 3030 3030 3031 3031 3030 3029 3028 3028 3027 3027 3027 3027 3027 3027 3027 3027 3027 3026 3026 3026 3025 3025 3024 3024 3024 3023 3023 3023 3023 3023 3023 3023 3023 3023 3023 3024 3024 3024 3024 3024 3024 3025 3025 3025 3025 3025 3024 3024 3023 3022 3021 3020 3019 3018 3016 3015 3013 3010 3008 3006 3005 3004 3002 3001 2999 2998 2998 2997 2996 2995 2994 2993 2991 2990 2990 2989 2989 2988 2988 2988 2989 2989 2990 2991 2992 2993
3028 3028 3028 3029 3028 3028 3027 3026 3026 3026 3026 3026 3026 3026 3026 3026 3026 3026 3026 3026 3025 3025 3024 3024 3023 3023 3022 3022 3022 3022 3022 3022 3022 3022 3022 3022 3023 3023 3023 3023 3023 3023 3023 3023 3024 3024 3023 3023 3023 3022 3021 3020 3019 3019 3017 3016 3015 3013 3010 3008 3006 3005 3004 3002 3001 3000 2999 2998 2998 2997 2996 2995 2994 2993 2992 2992 2991 2991 2990 2990 2990 2990 2990 2991 2991 2992 2993
3027 3027 3026 3026 3026 3026 3026 3025 3025 3025 3025 3025 3024 3024 3024 3025 3025 3025 3025 3025 3025 3024 3024 3023 3022 3022 3021 3021 3021 3021 3020 3020 3020 3020 3021 3021 3022 3022 3022 3022 3022 3022 3022 3022 3022 3022 3022 3022 3021 3021 3020 3020 3019 3018 3017 3016 3014 3013 3011 3009 3007 3006 3004 3003 3002 3000 2999 2999 2998 2997 2996 2995 2994 2994 2994 2994 2993 2992 2992 2992 2992 2992 2992 2991 2992 2992 2992
3025 3025 3025 3025 3025 3025 3024 3024 3024 3024 3024 3023 3023 3023 3023 3023 3024 3024 3024 3025 3024 3023 3023 3023 3022 3021 3021 3020 3020 3020 3019 3019 3019 3019 3019 3020 3020 3020 3020 3020 3021 3020 3020 3021 3021 3021 3021 3021 3020 3020 3020 3019 3018 3018 3017 3016 3014 3013 3011 3009 3008 3007 3005 3003 3002 3001 3000 2999 2998 2997 2996 2996 2995 2994 2994 2994 2994 2994 2993 2992 2993 2993 2993 2993 2993 2992 2993
3023 3023 3023 3023 3023 3023 3023 3023 3023 3022 3022 3022 3022 3022 3022 3022 3022 3023 3023 3023 3023 3023 3022 3022 3021 3021 3020 3019 3019 3019 3018 3018 3018 3018 3018 3019 3019 3019 3019 3019 3019 3019 3019 3019 3019 3019 3019 3020 3020 3019 3019 3018 3018 3017 3016 3015 3014 3013 3011 3010 3009 3007 3006 3004 3003 3001 3000 2999 2998 2997 2997 2996 2995 2995 2994 2994 2994 2994 2994 2993 2993 2993 2994 2994 2993 2993 2993
3022 3022 3022 3022 3022 3022 3022 3022 3021 3021 3021 3021 3021 3021 3021 3021 3021 3021 3022 3022 3022 3022 3022 3021 3021 3020 3020 3019 3018 3018 3018 3017 3017 3017 3017 3018 3018 3018 3018 3018 3018 3018 3018 3018 3019 3019 3019 3019 3019 3018 3018 3018 3017 3017 3016 3015 3014 3013 3012 3011 3010 3008 3007 3005 3004 3002 3001 3000 2999 2998 2997 2996 2996 2995 2994 2994 2994 2994 2994 2994 2994 2994 2994 2994 2994 2993 2993
3020 3020 3020 3020 3020 3020 3020 3020 3020 3020 3020 3020 3020 3020 3020 3020 3020 3020 3020 3020 3021 3021 3021 3021 3020 3020 3019 3018 3018 3017 3017 3017 3017 3017 3017 3017 3017 3017 3017 3018 3018 3018 3018 3018 3018 3018 3018 3018 3018 3018 3018 3017 3017 3016 3016 3015 3014 3013 3012 3011 3010 3009 3008 3006 3005 3003 3002 3001 3000 2999 2998 2997 2996 2996 2995 2995 2994 2994 2994 2994 2994 2994 2994 2994 2994 2994 2994
3018 3017 3017 3017 3018 3018 3018 3019 3019 3019 3019 3019 3019 3019 3019 3019 3019 3019 3019 3019 3019 3020 3020 3020 3019 3019 3019 3018 3018 3017 3017 3016 3016 3016 3016 3016 3016 3017 3017 3017 3018 3018 3018 3018 3019 3019 3018 3018 3018 3018 3018 3017 3016 3016 3015 3015 3014 3014 3013 3012 3011 3010 3009 3007 3006 3005 3003 3002 3001 2999 2999 2998 2997 2996 2996 2995 2995 2994 2994 2993 2993 2993 2993 2994 2994 2994 2994
3017 3016 3016 3016 3016 3016 3016 3017 3018 3017 3017 3017 3017 3017 3017 3017 3017 3017 3018 3018 3018 3018 3019 3019 3019 3018 3018 3018 3018 3017 3017 3017 3016 3016 3016 3016 3016 3017 3017 3018 3018 3018 3019 3019 3019 3019 3019 3019 3019 3018 3018 3017 3017 3016 3016 3016 3015 3014 3013 3012 3011 3010 3009 3008 3007 3006 3005 3004 3002 3001 3000 2999 2998 2997 2996 2996 2995 2995 2994 2994 2994 2994 2994 2994 2994 2994 2994
3015 3014 3014 3014 3014 3014 3015 3015 3015 3015 3016 3016 3016 3016 3016 3016 3016 3016 3016 3016 3017 3017 3017 3018 3018 3018 3018 3018 3018 3018 3017 3017 3017 3017 3017 3017 3017 3018 3018 3018 3019 3019 3019 3019 3020 3020 3020 3020 3019 3019 3019 3018 3018 3017 3017 3016 3016 3014 3013 3013 3012 3011 3010 3009 3009 3008 3007 3005 3004 3003 3002 3001 3000 2999 2998 2997 2997 2996 2996 2995 2995 2995 2995 2995 2995 2995 2995
3014 3013 3013 3012 3012 3013 3013 3013 3013 3014 3014 3014 3014 3014 3014 3014 3014 3015 3015 3015 3015 3015 3016 3016 3017 3017 3017 3017 3018 3018 3018 3018 3018 3018 3018 3018 3018 3018 3019 3019 3019 3020 3020 3020 3020 3020 3020 3020 3020 3020 3019 3019 3018 3018 3018 3017 3017 3015 3014 3014 3013 3012 3011 3010 3010 3009 3008 3007 3006 3005 3004 3003 3002 3001 3001 3000 2999 2998 2998 2997 2997 2997 2997 2997 2997 2997 2997
3012 3011 3011 3011 3010 3011 3011 3011 3011 3012 3012 3012 3012 3012 3012 3012 3013 3013 3013 3013 3013 3014 3014 3015 3015 3016 3016 3017 3017 3017 3018 3018 3018 3018 3018 3019 3019 3019 3019 3019 3020 3020 3020 3020 3020 3021 3021 3021 3020 3020 3020 3020 3019 3019 3018 3018 3018 3017 3016 3015 3014 3013 3012 3012 3011 3010 3009 3008 3008 3007 3006 3005 3004 3004 3003 3002 3002 3001 3000 3000 3000 2999 2999 2999 2999 2999 2999
3009 3009 3009 3009 3009 3009 3009 3009 3010 3010 3010 3010 3010 3011 3010 3010 3010 3011 3011 3011 3012 3012 3013 3013 3013 3014 3014 3015 3016 3016 3017 3017 3017 3018 3018 3019 3019 3019 3019 3020 3020 3020 3020 3020 3020 3021 3021 3021 3021 3021 3020 3020 3020 3019 3019 3019 3018 3017 3017 3016 3015 3014 3014 3013 3012 3011 3010 3010 3009 3008 3007 3007 3006 3005 3005 3004 3004 3003 3003 3002 3002 3001 3001 3001 3001 3000 3000
3007 3007 3007 3007 3007 3007 3007 3007 3008 3008 3008 3008 3008 3009 3009 3008 3009 3009 3009 3010 3010 3010 3011 3011 3012 3012 3012 3013 3014 3014 3015 3016 3016 3017 3017 3018 3018 3018 3019 3019 3019 3020 3020 3020 3020 3020 3020 3020 3020 3020 3020 3020 3020 3019 3019 3019 3018 3018 3017 3017 3016 3015 3015 3014 3013 3012 3012 3011 3010 3009 3008 3008 3007 3007 3006 3005 3005 3005 3004 3004 3003 3003 3003 3002 3002 3002 3002
3005 3005 3005 3005 3005 3006 3006 3006 3006 3006 3006 3007 3007 3007 3007 3007 3007 3007 3007 3008 3008 3008 3008 3009 3010 3010 3011 3011 3011 3012 3013 3014 3014 3015 3016 3016 3017 3017 3018 3018 3018 3019 3019 3019 3019 3020 3020 3020 3020 3020 3020 3020 3019 3019 3019 3019 3018 3018 3017 3017 3016 3016 3015 3015 3014 3013 3013 3012 3011 3010 3010 3009 3008 3007 3007 3006 3006 3006 3005 3005 3004 3004 3004 3004 3003 3003 3003
3003 3003 3003 3003 3004 3004 3005 3005 3005 3005 3005 3005 3005 3005 3005 3005 3005 3005 3005 3006 3006 3006 3006 3007 3008 3009 3009 3009 3009 3010 3010 3011 3012 3013 3014 3014 3015 3016 3016 3017 3017 3017 3018 3018 3018 3018 3019 3019 3019 3019 3019 3019 3019 3019 3019 3018 3018 3018 3017 3017 3017 3016 3016 3015 3015 3014 3013 3013 3012 3011 3010 3010 3009 3008 3008 3007 3007 3006 3006 3005 3005 3005 3005 3004 3004 3004 3004